User: anonymous   Login
Location: Bruderhein
(53.8035°N, 112.9265°W)
Time: 16:57:50
(UTC+00:00)
Language:

TIGRISAT - Orbit

View from above orbital plane
View from above orbital plane
View from above satellite
View from above satellite

Ground track
Ground track

The orbit data is extracted from the following two-line orbital elements,

1 40043U 14033AK  24106.00502702  .00005165  00000-0  69739-3 0  9995
2 40043  97.6898 271.5090 0056733 148.4245 212.0391 14.78370991528424
Epoch (UTC): 15 April 2024 00:07:14
Eccentricity: 0.0056733
inclination: 97.6898°
perigee height: 594 km
apogee height: 674 km
right ascension of ascending node: 271.5090°
argument of perigee: 148.4245°
revolutions per day: 14.78370991
mean anomaly at epoch: 212.0391°
orbit number at epoch: 52842

The dashed part of the orbit path shows where the satellite is in the earth's shadow,  

DLR